TimeEDT,TemperatureF,Dew PointF,Humidity,Sea Level PressureIn,VisibilityMPH,Wind Direction,Wind SpeedMPH,Gust SpeedMPH,PrecipitationIn,Events,Conditions,WindDirDegrees,DateUTC
12:15 AM,50.0,42.8,76,30.16,10.0,North,3.5,-,N/A,,Clear,10,2012-10-22 04:15:00
12:35 AM,50.0,42.8,76,30.16,10.0,North,3.5,-,N/A,,Clear,10,2012-10-22 04:35:00
12:55 AM,48.2,42.8,82,30.16,10.0,NNW,3.5,-,N/A,,Clear,340,2012-10-22 04:55:00
1:15 AM,50.0,42.8,76,30.16,10.0,Calm,Calm,-,N/A,,Clear,0,2012-10-22 05:15:00
1:35 AM,48.2,42.8,82,30.16,10.0,Calm,Calm,-,N/A,,Clear,0,2012-10-22 05:35:00
1:55 AM,46.4,42.8,87,30.16,10.0,Calm,Calm,-,N/A,,Clear,0,2012-10-22 05:55:00
2:35 AM,48.2,42.8,82,30.17,10.0,Calm,Calm,-,N/A,,Clear,0,2012-10-22 06:35:00
2:55 AM,46.4,41.0,81,30.16,10.0,North,3.5,-,N/A,,Clear,360,2012-10-22 06:55:00
3:35 AM,46.4,42.8,87,30.17,10.0,Calm,Calm,-,N/A,,Clear,0,2012-10-22 07:35:00
3:55 AM,48.2,42.8,82,30.17,10.0,Calm,Calm,-,N/A,,Clear,0,2012-10-22 07:55:00
4:15 AM,46.4,41.0,81,30.17,10.0,Calm,Calm,-,N/A,,Clear,0,2012-10-22 08:15:00
4:55 AM,44.6,41.0,87,30.18,10.0,North,3.5,-,N/A,,Clear,350,2012-10-22 08:55:00
5:15 AM,44.6,41.0,87,30.18,10.0,Calm,Calm,-,N/A,,Clear,0,2012-10-22 09:15:00
5:35 AM,44.6,41.0,87,30.19,10.0,Calm,Calm,-,N/A,,Clear,0,2012-10-22 09:35:00
5:55 AM,44.6,39.2,81,30.19,10.0,North,3.5,-,N/A,,Clear,360,2012-10-22 09:55:00
6:15 AM,44.6,41.0,87,30.19,7.0,Calm,Calm,-,N/A,,Clear,0,2012-10-22 10:15:00
6:35 AM,44.6,41.0,87,30.20,7.0,Calm,Calm,-,N/A,,Clear,0,2012-10-22 10:35:00
6:55 AM,42.8,37.4,81,30.21,10.0,Calm,Calm,-,N/A,,Clear,0,2012-10-22 10:55:00
7:15 AM,42.8,37.4,81,30.21,10.0,Calm,Calm,-,N/A,,Clear,0,2012-10-22 11:15:00
7:55 AM,44.6,41.0,87,30.22,10.0,Calm,Calm,-,N/A,,Clear,0,2012-10-22 11:55:00
8:15 AM,44.6,39.2,81,30.23,10.0,Calm,Calm,-,N/A,,Clear,0,2012-10-22 12:15:00
8:35 AM,44.6,41.0,87,30.23,10.0,Calm,Calm,-,N/A,,Clear,0,2012-10-22 12:35:00
9:55 AM,53.6,42.8,67,30.25,10.0,Calm,Calm,-,N/A,,Clear,0,2012-10-22 13:55:00
10:35 AM,60.8,41.0,48,30.25,10.0,ENE,3.5,-,N/A,,Clear,60,2012-10-22 14:35:00
10:55 AM,62.6,41.0,45,30.25,10.0,Calm,Calm,-,N/A,,Clear,0,2012-10-22 14:55:00
11:15 AM,64.4,39.2,40,30.25,10.0,ENE,4.6,-,N/A,,Clear,70,2012-10-22 15:15:00
11:35 AM,66.2,37.4,35,30.25,10.0,ENE,4.6,-,N/A,,Clear,60,2012-10-22 15:35:00
11:55 AM,68.0,39.2,35,-9999,1.0,Calm,Calm,-,N/A,,Haze,0,2012-10-22 15:55:00
12:35 PM,69.8,35.6,28,30.24,10.0,Calm,Calm,-,N/A,,Clear,0,2012-10-22 16:35:00
1:15 PM,73.4,32.0,22,30.22,10.0,Calm,Calm,-,N/A,,Clear,0,2012-10-22 17:15:00
1:35 PM,73.4,32.0,22,30.21,10.0,ESE,3.5,-,N/A,,Clear,110,2012-10-22 17:35:00
1:55 PM,73.4,32.0,22,30.20,10.0,Calm,Calm,-,N/A,,Clear,0,2012-10-22 17:55:00
2:15 PM,75.2,30.2,19,30.19,10.0,East,3.5,-,N/A,,Clear,100,2012-10-22 18:15:00
2:35 PM,77.0,32.0,19,30.19,10.0,Calm,Calm,-,N/A,,Clear,0,2012-10-22 18:35:00
2:55 PM,77.0,30.2,18,30.18,10.0,South,5.8,-,N/A,,Clear,180,2012-10-22 18:55:00
3:15 PM,77.0,30.2,18,30.17,10.0,Calm,Calm,-,N/A,,Clear,0,2012-10-22 19:15:00
3:35 PM,77.0,32.0,19,30.16,10.0,Calm,Calm,-,N/A,,Clear,0,2012-10-22 19:35:00
3:55 PM,78.8,32.0,18,30.16,10.0,SW,3.5,-,N/A,,Clear,230,2012-10-22 19:55:00
4:15 PM,78.8,32.0,18,30.15,10.0,SSW,3.5,-,N/A,,Clear,200,2012-10-22 20:15:00
4:35 PM,77.0,32.0,19,30.15,10.0,SSW,3.5,-,N/A,,Clear,200,2012-10-22 20:35:00
4:55 PM,77.0,32.0,19,30.15,10.0,SW,6.9,-,N/A,,Clear,220,2012-10-22 20:55:00
5:15 PM,77.0,32.0,19,30.15,10.0,SSW,4.6,-,N/A,,Clear,200,2012-10-22 21:15:00
5:35 PM,77.0,32.0,19,-9999,0.8,SSW,3.5,-,N/A,,Haze,210,2012-10-22 21:35:00
5:55 PM,75.2,33.8,22,30.15,10.0,Calm,Calm,-,N/A,,Clear,0,2012-10-22 21:55:00
6:15 PM,73.4,35.6,25,30.16,10.0,Calm,Calm,-,N/A,,Clear,0,2012-10-22 22:15:00
6:35 PM,73.4,35.6,25,30.16,10.0,Calm,Calm,-,N/A,,Clear,0,2012-10-22 22:35:00
6:55 PM,71.6,37.4,29,30.17,10.0,Calm,Calm,-,N/A,,Clear,0,2012-10-22 22:55:00
7:15 PM,71.6,39.2,31,30.16,10.0,Calm,Calm,-,N/A,,Clear,0,2012-10-22 23:15:00
7:35 PM,68.0,41.0,37,30.17,10.0,Calm,Calm,-,N/A,,Clear,0,2012-10-22 23:35:00
7:55 PM,68.0,42.8,40,30.18,10.0,Calm,Calm,-,N/A,,Clear,0,2012-10-22 23:55:00
8:35 PM,64.4,46.4,52,30.19,10.0,Calm,Calm,-,N/A,,Clear,0,2012-10-23 00:35:00
8:55 PM,62.6,46.4,55,30.19,10.0,Calm,Calm,-,N/A,,Clear,0,2012-10-23 00:55:00
9:35 PM,60.8,48.2,63,30.20,10.0,Calm,Calm,-,N/A,,Clear,0,2012-10-23 01:35:00
9:55 PM,59.0,46.4,63,30.20,10.0,Calm,Calm,-,N/A,,Clear,0,2012-10-23 01:55:00
10:15 PM,57.2,48.2,72,30.20,10.0,Calm,Calm,-,N/A,,Clear,0,2012-10-23 02:15:00
10:55 PM,55.4,48.2,77,30.20,10.0,North,3.5,-,N/A,,Clear,350,2012-10-23 02:55:00
11:35 PM,53.6,48.2,82,30.19,10.0,Calm,Calm,-,N/A,,Clear,0,2012-10-23 03:35:00
11:55 PM,53.6,48.2,82,30.19,10.0,Calm,Calm,-,N/A,,Clear,0,2012-10-23 03:55:00